Torna al catalogo

FENGYUN 1C DEB

AttivoSSO
NORAD 30720·DEBRIS·🇨🇳 China

Lanciato May 10, 1999 da Taiyuan Satellite Launch Center

Loading…

Prossimi Passaggi (prossime 24 ore)

TLE

AggiornatoSource: Space-Track

Epoca: Sep 13, 2026, 11:11 UTC

1 30720U 99025ASE 26256.46645789  .00000697  00000-0  28721-3 0  9992
2 30720  99.0453  85.3720 0030252 253.3648 136.2743 14.30002706 13768

Traccia FENGYUN 1C DEB in tempo reale con AllMySat

Download on the App Store